USA 324

Last updated on Sat Sep 13 2025 00:02:50 GMT+0000 (Coordinated Universal Time)

1 51280U 22006A 25254.29321448 -.00000263 00000+0 00000+0 0 9997 2 51280 0.1046 75.0924 0000716 181.5789 152.6001 1.00549330 13339
UTC large
Height (km)
Speed (km/s)
/
Latitude / Longitude
Inclination (degrees)
Orbital Period (minutes)
Azimuth
Elevation
Range (km)
Doppler Factor

Next 0 passes for location: London (51.5072 / 0.1276)

Sorry there are no passes over London.